QZS-6 (MICHIBIKI-6)

Last updated on Thu Aug 13 2026 00:03:03 GMT+0000 (Coordinated Universal Time)

1 62876U 25023A 26224.65324329 .00000000 00000+0 00000+0 0 9999 2 62876 0.0161 270.8394 0001902 244.2575 131.7011 1.00268844 5511
UTC large
Height (km)
Speed (km/s)
/
Latitude / Longitude
Inclination (degrees)
Orbital Period (minutes)
Azimuth
Elevation
Range (km)
Doppler Factor

Next 0 passes for location: London (51.5072 / 0.1276)

No passes found over London.
QZS-6 (MICHIBIKI-6)